| time (UTC) | temp C | wind direction | speed KPH | gust KPH | rain 1hr cm | rain 24hr cm | rain mn cm | humidity % | barometer mb |
| 20260507031029 | 14 | 254 | 0.0 | 6.4 | 0.03 | 0.23 | 0.23 | 94 | 1001.7 |
| 20260507030531 | 14 | 269 | 0.0 | 6.4 | 0.03 | 0.23 | 0.23 | 94 | 1001.6 |
| 20260507030028 | 14 | 229 | 0.0 | 6.4 | 0.03 | 0.23 | 0.23 | 94 | 1001.4 |
| 20260507025528 | 14 | 213 | 0.0 | 6.4 | 0.03 | 0.23 | 0.23 | 94 | 1001.3 |
| 20260507025030 | 14 | 210 | 0.0 | 3.2 | 0.03 | 0.23 | 0.23 | 94 | 1001.4 |
| 20260507024528 | 14 | 244 | 0.0 | 6.4 | 0.03 | 0.23 | 0.23 | 94 | 1001.4 |
| 20260507024028 | 14 | 245 | 0.0 | 6.4 | 0.03 | 0.23 | 0.23 | 94 | 1001.1 |
| 20260507023530 | 14 | 245 | 0.0 | 6.4 | 0.03 | 0.23 | 0.23 | 94 | 1001.1 |
| 20260507023028 | 14 | 232 | 0.0 | 6.4 | 0.00 | 0.20 | 0.20 | 94 | 1001.2 |
| 20260507022528 | 14 | 232 | 0.0 | 6.4 | 0.00 | 0.20 | 0.20 | 94 | 1001.3 |
| 20260507022030 | 14 | 229 | 0.0 | 12.9 | 0.00 | 0.20 | 0.20 | 94 | 1001.3 |
| 20260507021527 | 14 | 211 | 0.0 | 12.9 | 0.00 | 0.20 | 0.20 | 94 | 1001.4 |
| 20260507021030 | 14 | 217 | 0.0 | 6.4 | 0.00 | 0.20 | 0.20 | 94 | 1001.2 |
| 20260507020527 | 14 | 238 | 0.0 | 6.4 | 0.00 | 0.20 | 0.20 | 94 | 1001.2 |
| 20260507020043 | 14 | 202 | 0.0 | 3.2 | 0.00 | 0.20 | 0.20 | 94 | 1001.2 |
| 20260507015526 | 14 | 317 | 0.0 | 4.8 | 0.00 | 0.20 | 0.20 | 94 | 1001.3 |
| 20260507015026 | 14 | 229 | 0.0 | 4.8 | 0.00 | 0.20 | 0.20 | 94 | 1001.2 |
| 20260507014526 | 14 | 235 | 0.0 | 4.8 | 0.00 | 0.20 | 0.20 | 94 | 1001.3 |
| 20260507014025 | 14 | 193 | 0.0 | 1.6 | 0.00 | 0.20 | 0.20 | 94 | 1001.3 |
| 20260507013527 | 14 | 178 | 0.0 | 6.4 | 0.00 | 0.20 | 0.20 | 94 | 1001.1 |
| 20260507013027 | 14 | 159 | 0.0 | 8.0 | 0.00 | 0.20 | 0.20 | 94 | 1001.1 |
| 20260507012529 | 14 | 184 | 0.0 | 19.3 | 0.00 | 0.20 | 0.20 | 94 | 1001.2 |
| 20260507012026 | 14 | 184 | 0.0 | 19.3 | 0.00 | 0.20 | 0.20 | 94 | 1001.1 |
| 20260507011539 | 14 | 227 | 0.0 | 9.7 | 0.00 | 0.20 | 0.20 | 94 | 1001.2 |
| 20260507011025 | 14 | 109 | 0.0 | 9.7 | 0.00 | 0.20 | 0.20 | 94 | 1001.3 |
| 20260507010525 | 14 | 220 | 0.0 | 9.7 | 0.00 | 0.20 | 0.20 | 94 | 1001.4 |
| 20260507010029 | 14 | 269 | 1.6 | 9.7 | 0.00 | 0.20 | 0.20 | 94 | 1001.4 |
| 20260507005524 | 14 | 348 | 0.0 | 6.4 | 0.00 | 0.20 | 0.20 | 94 | 1001.4 |
| 20260507005024 | 14 | 154 | 0.0 | 11.3 | 0.00 | 0.20 | 0.20 | 94 | 1001.4 |
| 20260507004524 | 14 | 243 | 0.0 | 11.3 | 0.00 | 0.20 | 0.20 | 94 | 1001.4 |
| 20260507004024 | 14 | 188 | 0.0 | 4.8 | 0.00 | 0.20 | 0.20 | 94 | 1001.4 |
| 20260507003526 | 14 | 194 | 0.0 | 8.0 | 0.00 | 0.20 | 0.20 | 94 | 1001.4 |
| 20260507003024 | 14 | 285 | 0.0 | 4.8 | 0.00 | 0.20 | 0.20 | 94 | 1001.4 |
| 20260507002524 | 14 | 121 | 0.0 | 1.6 | 0.00 | 0.20 | 0.20 | 94 | 1001.4 |
| 20260507002024 | 14 | 261 | 0.0 | 4.8 | 0.00 | 0.20 | 0.20 | 94 | 1001.4 |
| 20260507001553 | 14 | 236 | 0.0 | 4.8 | 0.00 | 0.20 | 0.20 | 94 | 1001.3 |
| 20260507001026 | 14 | 207 | 0.0 | 3.2 | 0.00 | 0.20 | 0.20 | 94 | 1001.3 |
| 20260507000523 | 14 | 213 | 0.0 | 12.9 | 0.00 | 0.20 | 0.20 | 93 | 1001.3 |
| 20260507000024 | 14 | 231 | 0.0 | 12.9 | 0.03 | 0.20 | 0.20 | 94 | 1001.1 |
| 20260506235526 | 14 | 191 | 0.0 | 1.6 | 0.03 | 0.20 | 0.20 | 94 | 1001.0 |
| 20260506235023 | 14 | 157 | 0.0 | 3.2 | 0.05 | 0.20 | 0.20 | 93 | 1000.9 |
| 20260506234522 | 14 | 154 | 0.0 | 3.2 | 0.05 | 0.20 | 0.20 | 93 | 1001.0 |
| 20260506234022 | 14 | 207 | 0.0 | 3.2 | 0.08 | 0.20 | 0.20 | 93 | 1001.0 |
| 20260506233522 | 14 | 232 | 0.0 | 4.8 | 0.08 | 0.20 | 0.20 | 93 | 1001.0 |
| 20260506233023 | 14 | 213 | 0.0 | 4.8 | 0.08 | 0.20 | 0.20 | 93 | 1001.0 |
| 20260506232522 | 14 | 170 | 0.0 | 3.2 | 0.08 | 0.20 | 0.20 | 93 | 1001.1 |
| 20260506232022 | 15 | 190 | 0.0 | 3.2 | 0.08 | 0.20 | 0.20 | 93 | 1000.9 |
| 20260506231522 | 15 | 195 | 0.0 | 1.6 | 0.08 | 0.20 | 0.20 | 93 | 1000.9 |
| 20260506231025 | 15 | 198 | 0.0 | 1.6 | 0.08 | 0.20 | 0.20 | 93 | 1000.9 |
| 20260506230524 | 15 | 82 | 0.0 | 1.6 | 0.08 | 0.20 | 0.20 | 93 | 1000.9 |
| 20260506230020 | 15 | 104 | 0.0 | 1.6 | 0.05 | 0.18 | 0.18 | 93 | 1001.0 |
| 20260506225520 | 15 | 218 | 0.0 | 8.0 | 0.05 | 0.18 | 0.18 | 93 | 1000.9 |
| 20260506225019 | 15 | 219 | 0.0 | 8.0 | 0.03 | 0.15 | 0.15 | 93 | 1001.0 |
| 20260506224519 | 15 | 195 | 0.0 | 0.0 | 0.03 | 0.15 | 0.15 | 92 | 1001.1 |
| 20260506224019 | 15 | 165 | 0.0 | 4.8 | 0.00 | 0.13 | 0.13 | 92 | 1001.1 |
| 20260506223518 | 15 | 163 | 0.0 | 4.8 | 0.00 | 0.13 | 0.13 | 92 | 1001.2 |
| 20260506223027 | 15 | 186 | 0.0 | 0.0 | 0.00 | 0.13 | 0.13 | 92 | 1001.1 |
| 20260506222520 | 15 | 209 | 0.0 | 0.0 | 0.00 | 0.13 | 0.13 | 92 | 1001.1 |
| 20260506222017 | 15 | 180 | 0.0 | 0.0 | 0.00 | 0.13 | 0.13 | 92 | 1001.2 |
| 20260506221517 | 15 | 105 | 0.0 | 0.0 | 0.00 | 0.13 | 0.13 | 92 | 1001.2 |
| 20260506221018 | 15 | 171 | 0.0 | 3.2 | 0.00 | 0.13 | 0.13 | 92 | 1001.3 |
| 20260506220516 | 15 | 163 | 0.0 | 3.2 | 0.00 | 0.13 | 0.13 | 91 | 1001.3 |
| 20260506220016 | 15 | 165 | 0.0 | 0.0 | 0.00 | 0.13 | 0.13 | 91 | 1001.4 |
| 20260506215515 | 15 | 200 | 0.0 | 11.3 | 0.00 | 0.13 | 0.13 | 91 | 1001.4 |
| 20260506215015 | 15 | 139 | 0.0 | 11.3 | 0.00 | 0.13 | 0.13 | 91 | 1001.4 |
| 20260506214515 | 15 | 199 | 0.0 | 0.0 | 0.00 | 0.13 | 0.13 | 91 | 1001.4 |
| 20260506214014 | 15 | 211 | 0.0 | 1.6 | 0.00 | 0.13 | 0.13 | 91 | 1001.5 |
| 20260506213517 | 15 | 130 | 0.0 | 6.4 | 0.00 | 0.13 | 0.13 | 91 | 1001.6 |
| 20260506213012 | 15 | 162 | 0.0 | 4.8 | 0.00 | 0.13 | 0.13 | 91 | 1001.7 |
| 20260506212512 | 15 | 199 | 0.0 | 4.8 | 0.00 | 0.13 | 0.13 | 91 | 1001.7 |
| 20260506212016 | 15 | 168 | 0.0 | 4.8 | 0.00 | 0.13 | 0.13 | 91 | 1001.7 |
| 20260506211512 | 15 | 205 | 0.0 | 0.0 | 0.03 | 0.13 | 0.13 | 91 | 1001.7 |
| 20260506211011 | 15 | 211 | 0.0 | 0.0 | 0.03 | 0.13 | 0.13 | 91 | 1001.7 |
| 20260506210517 | 15 | 263 | 0.0 | 3.2 | 0.03 | 0.13 | 0.13 | 90 | 1001.8 |
| 20260506210019 | 15 | 290 | 0.0 | 6.4 | 0.03 | 0.13 | 0.13 | 90 | 1001.9 |
| 20260506205509 | 15 | 291 | 0.0 | 6.4 | 0.03 | 0.13 | 0.13 | 90 | 1001.9 |
| 20260506205012 | 15 | 223 | 0.0 | 11.3 | 0.03 | 0.13 | 0.13 | 90 | 1001.8 |
| 20260506204509 | 15 | 172 | 0.0 | 9.7 | 0.03 | 0.13 | 0.13 | 90 | 1001.9 |
| 20260506204009 | 15 | 209 | 0.0 | 6.4 | 0.03 | 0.13 | 0.13 | 90 | 1001.9 |
| 20260506203511 | 15 | 200 | 0.0 | 1.6 | 0.03 | 0.13 | 0.13 | 90 | 1001.9 |
| 20260506203010 | 15 | 186 | 0.0 | 4.8 | 0.03 | 0.13 | 0.13 | 90 | 1002.0 |
| 20260506202508 | 15 | 180 | 0.0 | 4.8 | 0.03 | 0.13 | 0.13 | 90 | 1001.9 |
| 20260506202008 | 15 | 192 | 0.0 | 8.0 | 0.03 | 0.10 | 0.10 | 89 | 1002.1 |
| 20260506201510 | 15 | 173 | 0.0 | 8.0 | 0.03 | 0.10 | 0.10 | 89 | 1002.0 |
| 20260506201007 | 15 | 217 | 0.0 | 16.1 | 0.05 | 0.10 | 0.10 | 89 | 1002.0 |
| 20260506200507 | 15 | 129 | 0.0 | 16.1 | 0.05 | 0.10 | 0.10 | 89 | 1002.2 |
| 20260506200006 | 15 | 173 | 0.0 | 4.8 | 0.08 | 0.10 | 0.10 | 89 | 1002.1 |
| 20260506195507 | 15 | 196 | 0.0 | 4.8 | 0.08 | 0.10 | 0.10 | 88 | 1002.0 |
| 20260506195006 | 16 | 258 | 0.0 | 4.8 | 0.08 | 0.10 | 0.10 | 88 | 1002.1 |
| 20260506194507 | 16 | 235 | 0.0 | 6.4 | 0.08 | 0.10 | 0.10 | 87 | 1002.0 |
| 20260506194008 | 16 | 360 | 0.0 | 6.4 | 0.10 | 0.10 | 0.10 | 87 | 1002.0 |
| 20260506193505 | 16 | 360 | 0.0 | 4.8 | 0.10 | 0.10 | 0.10 | 87 | 1002.1 |
| 20260506193005 | 16 | 360 | 0.0 | 6.4 | 0.10 | 0.10 | 0.10 | 86 | 1002.1 |
| 20260506192504 | 16 | 360 | 0.0 | 6.4 | 0.10 | 0.10 | 0.10 | 86 | 1002.1 |
| 20260506192004 | 17 | 179 | 0.0 | 0.0 | 0.08 | 0.08 | 0.08 | 85 | 1002.2 |
| 20260506191507 | 17 | 177 | 0.0 | 6.4 | 0.05 | 0.05 | 0.05 | 84 | 1002.1 |
| 20260506191003 | 17 | 360 | 0.0 | 6.4 | 0.05 | 0.05 | 0.05 | 82 | 1002.1 |
| 20260506190502 | 17 | 360 | 0.0 | 8.0 | 0.05 | 0.05 | 0.05 | 82 | 1002.1 |
| 20260506190002 | 17 | 110 | 0.0 | 8.0 | 0.03 | 0.03 | 0.03 | 80 | 1002.2 |
| 20260506185503 | 18 | 360 | 0.0 | 0.0 | 0.03 | 0.03 | 0.03 | 79 | 1002.3 |
| 20260506185000 | 18 | 163 | 0.0 | 0.0 | 0.03 | 0.03 | 0.03 | 78 | 1002.3 |
| 20260506184503 | 18 | 360 | 0.0 | 0.0 | 0.03 | 0.03 | 0.03 | 76 | 1002.3 |
| 20260506184103 | 18 | 360 | 0.0 | 0.0 | 0.00 | 0.00 | 0.00 | 75 | 1002.3 |
| 20260506183604 | 18 | 196 | 0.0 | 9.7 | 0.00 | 0.00 | 0.00 | 73 | 1002.4 |
| 20260506183109 | 19 | 236 | 0.0 | 14.5 | 0.00 | 0.00 | 0.00 | 71 | 1002.5 |
| 20260506182559 | 19 | 228 | 1.6 | 14.5 | 0.00 | 0.00 | 0.00 | 70 | 1002.6 |
| 20260506182059 | 20 | 240 | 0.0 | 8.0 | 0.00 | 0.00 | 0.00 | 70 | 1002.6 |
| 20260506181604 | 20 | 360 | 0.0 | 11.3 | 0.00 | 0.00 | 0.00 | 68 | 1002.5 |
| 20260506181059 | 20 | 360 | 3.2 | 20.9 | 0.00 | 0.00 | 0.00 | 66 | 1002.5 |
| 20260506180600 | 20 | 360 | 6.4 | 20.9 | 0.00 | 0.00 | 0.00 | 64 | 1002.5 |
| 20260506180100 | 21 | 360 | 0.0 | 6.4 | 0.00 | 0.00 | 0.00 | 63 | 1002.5 |
| 20260506175558 | 21 | 360 | 0.0 | 1.6 | 0.00 | 0.00 | 0.00 | 60 | 1002.7 |
| 20260506175101 | 21 | 360 | 0.0 | 1.6 | 0.00 | 0.00 | 0.00 | 59 | 1002.6 |
| 20260506174558 | 21 | 360 | 0.0 | 1.6 | 0.00 | 0.00 | 0.00 | 59 | 1002.5 |
| 20260506174058 | 21 | 217 | 0.0 | 4.8 | 0.00 | 0.00 | 0.00 | 57 | 1002.5 |
| 20260506173558 | 22 | 128 | 0.0 | 9.7 | 0.00 | 0.00 | 0.00 | 58 | 1002.5 |
| 20260506173109 | 22 | 192 | 0.0 | 9.7 | 0.00 | 0.00 | 0.00 | 57 | 1002.6 |
| 20260506172557 | 22 | 360 | 0.0 | 8.0 | 0.00 | 0.00 | 0.00 | 57 | 1002.5 |
| 20260506172057 | 22 | 360 | 0.0 | 9.7 | 0.00 | 0.00 | 0.00 | 57 | 1002.5 |
| 20260506171557 | 22 | 360 | 0.0 | 9.7 | 0.00 | 0.00 | 0.00 | 57 | 1002.6 |
| 20260506171057 | 22 | 144 | 0.0 | 4.8 | 0.00 | 0.00 | 0.00 | 58 | 1002.7 |
| 20260506170557 | 22 | 360 | 0.0 | 12.9 | 0.00 | 0.00 | 0.00 | 57 | 1002.7 |
| 20260506170108 | 22 | 360 | 0.0 | 16.1 | 0.00 | 0.00 | 0.00 | 56 | 1002.6 |
| 20260506165556 | 22 | 360 | 0.0 | 16.1 | 0.00 | 0.00 | 0.00 | 56 | 1002.9 |
| 20260506165054 | 22 | 360 | 0.0 | 12.9 | 0.00 | 0.00 | 0.00 | 59 | 1002.7 |
| 20260506164613 | 21 | 215 | 0.0 | 8.0 | 0.00 | 0.00 | 0.00 | 60 | 1002.7 |
| 20260506164053 | 21 | 201 | 0.0 | 6.4 | 0.00 | 0.00 | 0.00 | 60 | 1002.8 |
| 20260506163552 | 21 | 192 | 0.0 | 12.9 | 0.00 | 0.00 | 0.00 | 60 | 1003.0 |
| 20260506163059 | 21 | 180 | 0.0 | 12.9 | 0.00 | 0.00 | 0.00 | 60 | 1003.1 |
| 20260506162552 | 21 | 117 | 0.0 | 1.6 | 0.00 | 0.00 | 0.00 | 62 | 1003.2 |
| 20260506162049 | 21 | 146 | 0.0 | 3.2 | 0.00 | 0.00 | 0.00 | 62 | 1003.2 |
| 20260506161550 | 21 | 178 | 0.0 | 12.9 | 0.00 | 0.00 | 0.00 | 62 | 1003.2 |
| 20260506161050 | 21 | 175 | 0.0 | 12.9 | 0.00 | 0.00 | 0.00 | 62 | 1003.4 |
| 20260506160549 | 21 | 236 | 0.0 | 1.6 | 0.00 | 0.00 | 0.00 | 62 | 1003.5 |
| 20260506160055 | 21 | 156 | 0.0 | 0.0 | 0.00 | 0.00 | 0.00 | 63 | 1003.6 |
| 20260506155546 | 21 | 219 | 0.0 | 3.2 | 0.00 | 0.00 | 0.00 | 63 | 1003.6 |
| 20260506155045 | 21 | 182 | 0.0 | 3.2 | 0.00 | 0.00 | 0.00 | 63 | 1003.7 |
| 20260506154547 | 21 | 152 | 0.0 | 3.2 | 0.00 | 0.00 | 0.00 | 64 | 1003.8 |
| 20260506154045 | 21 | 144 | 0.0 | 3.2 | 0.00 | 0.00 | 0.00 | 63 | 1003.9 |
| 20260506153549 | 21 | 207 | 0.0 | 1.6 | 0.00 | 0.00 | 0.00 | 62 | 1003.9 |
| 20260506153043 | 21 | 360 | 0.0 | 9.7 | 0.00 | 0.00 | 0.00 | 62 | 1003.9 |
| 20260506152543 | 21 | 360 | 0.0 | 1.6 | 0.00 | 0.00 | 0.00 | 62 | 1003.9 |
| 20260506152045 | 21 | 360 | 0.0 | 1.6 | 0.00 | 0.00 | 0.00 | 63 | 1004.2 |
| 20260506151542 | 21 | 360 | 0.0 | 1.6 | 0.00 | 0.00 | 0.00 | 62 | 1004.2 |
| 20260506151042 | 21 | 360 | 0.0 | 16.1 | 0.00 | 0.00 | 0.00 | 63 | 1004.2 |
| 20260506150544 | 21 | 360 | 0.0 | 16.1 | 0.00 | 0.00 | 0.00 | 63 | 1004.2 |
| 20260506150051 | 21 | 360 | 0.0 | 9.7 | 0.00 | 0.00 | 0.00 | 62 | 1004.1 |
| 20260506145541 | 21 | 360 | 0.0 | 0.0 | 0.00 | 0.00 | 0.00 | 63 | 1004.2 |
| 20260506145040 | 21 | 360 | 0.0 | 0.0 | 0.00 | 0.00 | 0.00 | 63 | 1004.2 |
| 20260506144540 | 21 | 360 | 0.0 | 3.2 | 0.00 | 0.00 | 0.00 | 66 | 1004.3 |
| 20260506144039 | 21 | 195 | 0.0 | 9.7 | 0.00 | 0.00 | 0.00 | 65 | 1004.4 |
| 20260506143538 | 21 | 360 | 0.0 | 9.7 | 0.00 | 0.00 | 0.00 | 66 | 1004.3 |
| 20260506143039 | 21 | 360 | 0.0 | 3.2 | 0.00 | 0.00 | 0.00 | 68 | 1004.3 |
| 20260506142535 | 20 | 240 | 0.0 | 4.8 | 0.00 | 0.00 | 0.00 | 68 | 1004.3 |
| 20260506142035 | 20 | 360 | 0.0 | 4.8 | 0.00 | 0.00 | 0.00 | 67 | 1004.3 |
| 20260506141541 | 20 | 192 | 0.0 | 0.0 | 0.00 | 0.00 | 0.00 | 69 | 1004.3 |
| 20260506141033 | 20 | 186 | 0.0 | 4.8 | 0.00 | 0.00 | 0.00 | 68 | 1004.2 |
| 20260506140535 | 20 | 191 | 0.0 | 6.4 | 0.00 | 0.00 | 0.00 | 68 | 1004.2 |
| 20260506140033 | 20 | 183 | 0.0 | 6.4 | 0.00 | 0.00 | 0.00 | 69 | 1004.2 |
| 20260506135530 | 20 | 360 | 0.0 | 6.4 | 0.00 | 0.00 | 0.00 | 71 | 1004.3 |
| 20260506135033 | 20 | 360 | 0.0 | 8.0 | 0.00 | 0.00 | 0.00 | 71 | 1004.5 |
| 20260506134528 | 19 | 172 | 0.0 | 9.7 | 0.00 | 0.00 | 0.00 | 70 | 1004.4 |
| 20260506134029 | 19 | 360 | 0.0 | 9.7 | 0.00 | 0.00 | 0.00 | 70 | 1004.3 |
| 20260506133527 | 19 | 360 | 0.0 | 1.6 | 0.00 | 0.00 | 0.00 | 72 | 1004.3 |
| 20260506133026 | 19 | 165 | 0.0 | 4.8 | 0.00 | 0.00 | 0.00 | 74 | 1004.5 |
| 20260506132528 | 18 | 360 | 0.0 | 4.8 | 0.00 | 0.00 | 0.00 | 72 | 1004.8 |
| 20260506132023 | 18 | 223 | 0.0 | 9.7 | 0.00 | 0.00 | 0.00 | 75 | 1004.8 |
| 20260506131524 | 18 | 360 | 0.0 | 9.7 | 0.00 | 0.00 | 0.00 | 76 | 1004.8 |
| 20260506131021 | 18 | 360 | 0.0 | 0.0 | 0.00 | 0.00 | 0.00 | 75 | 1005.0 |
| 20260506130522 | 17 | 117 | 0.0 | 1.6 | 0.00 | 0.00 | 0.00 | 76 | 1004.9 |
| 20260506130020 | 17 | 106 | 0.0 | 8.0 | 0.00 | 0.00 | 0.00 | 75 | 1004.9 |
| 20260506125518 | 17 | 217 | 0.0 | 8.0 | 0.00 | 0.00 | 0.00 | 76 | 1004.8 |
| 20260506125019 | 17 | 360 | 0.0 | 8.0 | 0.00 | 0.00 | 0.00 | 76 | 1004.7 |
| 20260506124517 | 17 | 360 | 1.6 | 8.0 | 0.00 | 0.00 | 0.00 | 77 | 1004.8 |
| 20260506124016 | 17 | 360 | 0.0 | 3.2 | 0.00 | 0.00 | 0.00 | 77 | 1004.8 |
| 20260506123515 | 17 | 360 | 0.0 | 3.2 | 0.00 | 0.00 | 0.00 | 78 | 1004.8 |
| 20260506123015 | 17 | 360 | 0.0 | 1.6 | 0.00 | 0.00 | 0.00 | 79 | 1004.8 |
| 20260506122513 | 17 | 220 | 0.0 | 1.6 | 0.00 | 0.00 | 0.00 | 79 | 1004.8 |
| 20260506122013 | 16 | 360 | 0.0 | 0.0 | 0.00 | 0.00 | 0.00 | 80 | 1005.0 |
| 20260506121514 | 16 | 360 | 0.0 | 1.6 | 0.00 | 0.00 | 0.00 | 81 | 1004.8 |
| 20260506121012 | 16 | 360 | 0.0 | 8.0 | 0.00 | 0.00 | 0.00 | 80 | 1004.9 |
| 20260506120512 | 16 | 114 | 0.0 | 4.8 | 0.00 | 0.00 | 0.00 | 81 | 1005.0 |
| 20260506120025 | 16 | 360 | 0.0 | 6.4 | 0.00 | 0.00 | 0.00 | 82 | 1004.8 |
| 20260506115511 | 16 | 360 | 0.0 | 6.4 | 0.00 | 0.00 | 0.00 | 83 | 1004.9 |
| 20260506115010 | 15 | 360 | 0.0 | 16.1 | 0.00 | 0.00 | 0.00 | 83 | 1004.9 |
| 20260506114508 | 15 | 360 | 0.0 | 16.1 | 0.00 | 0.00 | 0.00 | 83 | 1005.0 |
| 20260506114010 | 15 | 256 | 0.0 | 0.0 | 0.00 | 0.00 | 0.00 | 83 | 1005.1 |
| 20260506113510 | 15 | 360 | 0.0 | 12.9 | 0.00 | 0.00 | 0.00 | 83 | 1005.0 |
| 20260506113007 | 15 | 360 | 0.0 | 12.9 | 0.00 | 0.00 | 0.00 | 84 | 1005.0 |
| 20260506112506 | 15 | 239 | 0.0 | 9.7 | 0.00 | 0.00 | 0.00 | 84 | 1005.3 |
| 20260506112006 | 15 | 360 | 0.0 | 1.6 | 0.00 | 0.00 | 0.00 | 84 | 1005.5 |
| 20260506111506 | 15 | 360 | 0.0 | 3.2 | 0.00 | 0.00 | 0.00 | 85 | 1005.4 |
| 20260506111005 | 15 | 360 | 0.0 | 3.2 | 0.00 | 0.00 | 0.00 | 85 | 1005.3 |
| 20260506110504 | 15 | 360 | 0.0 | 3.2 | 0.00 | 0.00 | 0.00 | 85 | 1005.2 |
| 20260506110005 | 14 | 360 | 0.0 | 3.2 | 0.00 | 0.00 | 0.00 | 85 | 1005.1 |
| 20260506105502 | 14 | 360 | 0.0 | 0.0 | 0.00 | 0.00 | 0.00 | 85 | 1005.2 |
| 20260506105002 | 14 | 360 | 0.0 | 4.8 | 0.00 | 0.00 | 0.00 | 85 | 1005.2 |
| 20260506104501 | 14 | 90 | 0.0 | 4.8 | 0.00 | 0.00 | 0.00 | 85 | 1005.2 |
| 20260506104004 | 14 | 203 | 0.0 | 9.7 | 0.00 | 0.00 | 0.00 | 85 | 1005.2 |
| 20260506103601 | 14 | 205 | 0.0 | 9.7 | 0.00 | 0.00 | 0.00 | 85 | 1005.2 |
| 20260506103059 | 14 | 184 | 0.0 | 6.4 | 0.00 | 0.00 | 0.00 | 84 | 1005.1 |
| 20260506102558 | 14 | 234 | 0.0 | 6.4 | 0.00 | 0.00 | 0.00 | 84 | 1005.1 |
| 20260506102059 | 14 | 116 | 0.0 | 0.0 | 0.00 | 0.00 | 0.00 | 84 | 1005.2 |
| 20260506101557 | 14 | 38 | 0.0 | 0.0 | 0.00 | 0.00 | 0.00 | 84 | 1005.3 |
| 20260506101058 | 14 | 38 | 0.0 | 1.6 | 0.00 | 0.00 | 0.00 | 84 | 1005.2 |
| 20260506100601 | 14 | 225 | 0.0 | 0.0 | 0.00 | 0.00 | 0.00 | 84 | 1005.1 |
| 20260506100110 | 14 | 219 | 0.0 | 0.0 | 0.00 | 0.00 | 0.00 | 84 | 1005.0 |
| 20260506095555 | 14 | 238 | 0.0 | 4.8 | 0.00 | 0.00 | 0.00 | 84 | 1005.0 |
| 20260506095054 | 14 | 243 | 0.0 | 4.8 | 0.00 | 0.00 | 0.00 | 84 | 1005.0 |
| 20260506094601 | 14 | 144 | 0.0 | 3.2 | 0.00 | 0.00 | 0.00 | 83 | 1005.0 |
| 20260506094053 | 14 | 259 | 0.0 | 0.0 | 0.00 | 0.00 | 0.00 | 83 | 1005.0 |
| 20260506093552 | 14 | 154 | 0.0 | 1.6 | 0.00 | 0.00 | 0.00 | 83 | 1004.9 |
| 20260506093052 | 14 | 158 | 0.0 | 12.9 | 0.00 | 0.00 | 0.00 | 83 | 1004.9 |
| 20260506092552 | 14 | 199 | 0.0 | 12.9 | 0.00 | 0.00 | 0.00 | 83 | 1005.0 |
| 20260506092052 | 14 | 184 | 0.0 | 4.8 | 0.00 | 0.00 | 0.00 | 82 | 1005.0 |
| 20260506091552 | 14 | 208 | 0.0 | 4.8 | 0.00 | 0.00 | 0.00 | 82 | 1005.1 |
| 20260506091051 | 14 | 208 | 0.0 | 4.8 | 0.00 | 0.00 | 0.00 | 82 | 1005.1 |
| 20260506090550 | 14 | 137 | 0.0 | 4.8 | 0.00 | 0.00 | 0.00 | 81 | 1005.0 |
| 20260506090050 | 14 | 154 | 0.0 | 1.6 | 0.00 | 0.00 | 0.00 | 81 | 1005.0 |
| 20260506085549 | 15 | 287 | 0.0 | 1.6 | 0.00 | 0.00 | 0.00 | 81 | 1004.9 |
| 20260506085049 | 15 | 291 | 0.0 | 1.6 | 0.00 | 0.00 | 0.00 | 81 | 1005.0 |
| 20260506084616 | 15 | 138 | 0.0 | 1.6 | 0.00 | 0.00 | 0.00 | 81 | 1005.2 |
| 20260506084048 | 15 | 205 | 0.0 | 0.0 | 0.00 | 0.00 | 0.00 | 80 | 1005.2 |
| 20260506083546 | 15 | 242 | 0.0 | 1.6 | 0.00 | 0.00 | 0.00 | 80 | 1005.2 |
| 20260506083047 | 15 | 148 | 0.0 | 1.6 | 0.00 | 0.00 | 0.00 | 80 | 1005.1 |
| 20260506082548 | 15 | 227 | 0.0 | 3.2 | 0.00 | 0.00 | 0.00 | 80 | 1005.1 |
| 20260506082046 | 15 | 229 | 0.0 | 3.2 | 0.00 | 0.00 | 0.00 | 79 | 1005.1 |
| 20260506081554 | 15 | 286 | 0.0 | 3.2 | 0.00 | 0.00 | 0.00 | 79 | 1005.1 |
| 20260506081045 | 15 | 195 | 0.0 | 3.2 | 0.00 | 0.00 | 0.00 | 79 | 1005.0 |
| 20260506080545 | 15 | 187 | 0.0 | 1.6 | 0.00 | 0.00 | 0.00 | 78 | 1005.1 |
| 20260506073043 | 15 | 180 | 0.0 | 0.0 | 0.00 | 0.00 | 0.00 | 77 | 1005.1 |
| 20260506072541 | 16 | 188 | 0.0 | 0.0 | 0.00 | 0.00 | 0.00 | 76 | 1005.0 |
| 20260506072040 | 16 | 248 | 0.0 | 4.8 | 0.00 | 0.00 | 0.00 | 76 | 1004.9 |
| 20260506071540 | 16 | 205 | 0.0 | 4.8 | 0.00 | 0.00 | 0.00 | 76 | 1004.8 |
| 20260506071039 | 16 | 262 | 0.0 | 12.9 | 0.00 | 0.00 | 0.00 | 76 | 1004.8 |
| 20260506070538 | 16 | 107 | 0.0 | 12.9 | 0.00 | 0.00 | 0.00 | 75 | 1004.7 |
| 20260506062036 | 16 | 229 | 0.0 | 6.4 | 0.00 | 0.00 | 0.00 | 72 | 1004.5 |
| 20260506061534 | 16 | 215 | 0.0 | 8.0 | 0.00 | 0.00 | 0.00 | 72 | 1004.5 |
| 20260506061034 | 16 | 360 | 0.0 | 8.0 | 0.00 | 0.00 | 0.00 | 72 | 1004.5 |
| 20260506060533 | 16 | 178 | 0.0 | 8.0 | 0.00 | 0.00 | 0.00 | 71 | 1004.5 |
| 20260506051030 | 17 | 360 | 0.0 | 4.8 | 0.00 | 0.00 | 0.00 | 68 | 1004.8 |
| 20260506050530 | 17 | 360 | 0.0 | 12.9 | 0.00 | 0.00 | 0.00 | 68 | 1004.8 |
| 20260506045028 | 16 | 360 | 0.0 | 4.8 | 0.00 | 0.00 | 0.00 | 68 | 1004.9 |
| 20260506044536 | 16 | 360 | 0.0 | 0.0 | 0.00 | 0.00 | 0.00 | 68 | 1005.0 |
| 20260506044028 | 16 | 227 | 0.0 | 6.4 | 0.00 | 0.00 | 0.00 | 68 | 1005.0 |
| 20260506043531 | 16 | 360 | 0.0 | 6.4 | 0.00 | 0.00 | 0.00 | 68 | 1005.0 |
| 20260506043026 | 16 | 360 | 0.0 | 1.6 | 0.00 | 0.00 | 0.00 | 69 | 1005.2 |
| 20260506042526 | 16 | 360 | 0.0 | 3.2 | 0.00 | 0.00 | 0.00 | 69 | 1005.0 |
| 20260506042027 | 16 | 360 | 0.0 | 3.2 | 0.00 | 0.00 | 0.00 | 69 | 1005.1 |
| 20260506041528 | 16 | 360 | 0.0 | 1.6 | 0.00 | 0.00 | 0.00 | 69 | 1005.1 |
| 20260506041024 | 16 | 360 | 0.0 | 0.0 | 0.00 | 0.00 | 0.00 | 69 | 1005.1 |
| 20260506040526 | 16 | 360 | 0.0 | 0.0 | 0.00 | 0.00 | 0.00 | 69 | 1005.1 |
| 20260506040032 | 16 | 360 | 0.0 | 6.4 | 0.00 | 0.00 | 0.00 | 69 | 1005.1 |
| 20260506035523 | 16 | 99 | 0.0 | 0.0 | 0.00 | 0.00 | 0.00 | 69 | 1005.1 |
| 20260506035023 | 16 | 360 | 0.0 | 0.0 | 0.00 | 0.00 | 0.00 | 68 | 1005.1 |
| 20260506034523 | 16 | 360 | 0.0 | 1.6 | 0.00 | 0.00 | 0.00 | 69 | 1005.1 |
| 20260506034023 | 16 | 360 | 0.0 | 1.6 | 0.00 | 0.00 | 0.00 | 68 | 1005.1 |
| 20260506033522 | 16 | 360 | 0.0 | 0.0 | 0.00 | 0.00 | 0.00 | 68 | 1005.0 |
| 20260506033022 | 16 | 360 | 0.0 | 0.0 | 0.00 | 0.00 | 0.00 | 68 | 1005.0 |
| 20260506032522 | 16 | 360 | 0.0 | 0.0 | 0.00 | 0.00 | 0.00 | 68 | 1005.1 |
| 20260506032022 | 16 | 360 | 0.0 | 1.6 | 0.00 | 0.00 | 0.00 | 68 | 1005.0 |
| 20260506031521 | 16 | 360 | 0.0 | 1.6 | 0.00 | 0.00 | 0.00 | 67 | 1004.9 |